Powrót do katalogu

DELTA 1 DEB

AktywnySSO
NORAD 10658·DEBRIS·🇺🇸 United States

Wystrzelony Jul 29, 1976 z Vandenberg Space Force Base

Loading…

Następne Przeloty (najbliższe 24 godziny)

TLE

ŚwieżeSource: Space-Track

Epoka: Sep 14, 2026, 05:52 UTC

1 10658U 76077U   26257.24492029 -.00000048  00000-0 -14266-4 0  9998
2 10658 102.4985 245.0926 0056486 211.5568 220.1873 12.29960428250874

Śledź DELTA 1 DEB w czasie rzeczywistym z AllMySat

Download on the App Store